Location: *
(51.4660°N, 0.3360°W)
Time: 21:27:48
(UTC+00:00)

NOSS 3-3 (C) - Pass Details

Date: 19 September 2019
Orbit: 849 x 1364 km, 63.4° (Epoch: 08 October)

Event Time Altitude Azimuth Distance (km) Brightness Sun altitude
Rises 19:15:16 0° 230° (SW) 3,498 7.4 -11.2°
Reaches altitude 10° 19:17:40 10° 232° (SW) 2,606 6.7 -11.6°
Maximum altitude 19:23:44 76° 318° (NW) 1,027 4.3 -12.5°
Drops below altitude 10° 19:30:40 10° 44° (NE) 2,951 6.3 -13.5°
Sets 19:33:32 0° 47° (NE) 3,993 6.9 -13.9°
